Location: Bronschhofen
(47.4788°N, 9.0353°E)
Time: 19:00:59
(UTC+00:00)

NOSS 2-2 (C) - Pass Details

Date: 20 May 2022
Orbit: 439 x 1763 km, 63.3° (Epoch: 02 June)

Event Time Altitude Azimuth Distance (km) Brightness Sun altitude
Rises 01:58:37 0° 315° (NW) 3,036 7.2 -13.8°
Reaches altitude 10° 02:00:41 10° 311° (NW) 2,264 6.5 -13.6°
Maximum altitude 02:05:45 54° 235° (SW) 1,124 4.5 -13.0°
Drops below altitude 10° 02:12:49 10° 161° (SSE) 3,133 6.9 -12.3°
Sets 02:16:06 0° 157° (SSE) 4,313 7.6 -11.9°
